Total_Precipitation_Accumulation
1.97 2.04 2.00 1.99 1.96 1.85 1.83 1.98 2.07 1.91 1.76 1.58 1.45 1.37 1.37 1.30 1.40 1.24 1.17 1.09 0.92 0.83 0.79 0.83 1.02 1.33 1.54 1.75 1.91 1.87 1.90 1.96 2.08 2.22 2.19 2.09 2.05 1.92
1.96 2.07 2.10 2.08 2.10 2.02 1.90 1.89 1.84 1.87 1.79 1.57 1.39 1.30 1.43 1.31 1.41 1.23 1.17 1.30 1.09 0.91 0.84 0.81 0.81 0.88 1.03 1.23 1.40 1.46 1.41 1.43 1.56 1.84 2.03 2.06 1.96 1.80
1.77 1.87 1.98 2.08 2.20 2.21 2.20 2.09 1.93 1.88 1.80 1.64 1.43 1.31 1.46 1.50 1.44 1.38 1.25 1.18 1.14 1.04 0.95 0.92 0.87 0.77 0.85 0.95 1.11 1.21 1.20 1.06 1.05 1.23 1.47 1.59 1.77 1.79
1.60 1.58 1.66 1.76 1.92 2.07 2.16 2.10 2.08 1.97 1.88 1.85 1.67 1.42 1.32 1.40 1.47 1.56 1.47 1.25 1.19 1.23 1.15 1.05 0.99 0.86 0.77 0.80 0.89 0.97 1.00 0.99 0.90 0.88 0.99 1.08 1.18 1.37
1.37 1.35 1.37 1.46 1.60 1.74 1.83 1.90 2.01 2.05 2.05 1.95 1.87 1.69 1.44 1.45 1.53 1.56 1.58 1.65 1.40 1.29 1.29 1.22 1.14 1.05 0.98 0.89 0.87 0.89 0.86 0.87 0.86 0.78 0.77 0.89 0.94 1.07
1.09 1.10 1.15 1.19 1.28 1.40 1.55 1.76 1.95 2.06 2.13 2.12 2.02 1.80 1.63 1.59 1.57 1.58 1.66 1.75 1.72 1.49 1.37 1.29 1.32 1.28 1.14 1.05 0.98 0.95 0.95 0.90 0.90 0.89 0.80 0.76 0.79 0.82
0.88 0.79 0.81 0.88 0.90 0.98 1.03 1.32 1.58 1.81 1.94 2.02 2.00 1.85 1.64 1.53 1.41 1.45 1.59 1.76 1.84 1.79 1.70 1.43 1.35 1.31 1.25 1.20 1.11 1.03 0.99 1.02 0.98 0.95 0.95 0.90 0.90 0.88
0.78 0.70 0.69 0.72 0.64 0.61 0.65 0.87 1.17 1.38 1.57 1.75 1.81 1.69 1.55 1.47 1.51 1.51 1.52 1.58 1.61 1.54 1.55 1.56 1.48 1.38 1.30 1.24 1.24 1.22 1.14 1.10 1.12 1.07 1.07 1.05 1.03 1.07
0.80 0.82 0.75 0.70 0.77 0.69 0.63 0.70 0.79 0.91 1.07 1.33 1.56 1.55 1.64 1.57 1.48 1.43 1.44 1.48 1.49 1.54 1.55 1.56 1.46 1.36 1.24 1.19 1.32 1.26 1.27 1.22 1.23 1.26 1.18 1.19 1.16 1.15
0.85 0.94 0.95 0.88 0.86 0.94 0.89 0.89 0.87 0.80 0.85 0.78 1.00 1.38 1.52 1.58 1.53 1.56 1.65 1.58 1.46 1.49 1.52 1.54 1.46 1.34 1.20 1.10 1.20 1.12 1.07 1.06 1.14 1.31 1.40 1.38 1.39 1.36
0.79 0.91 0.95 0.89 0.93 1.00 1.12 1.18 1.10 0.95 1.06 1.07 0.98 1.09 1.23 1.29 1.40 1.50 1.57 1.50 1.45 1.38 1.27 1.25 1.20 1.23 1.28 1.19 1.14 1.18 1.09 1.03 0.99 1.02 1.14 1.21 1.32 1.47
0.82 0.87 1.02 0.95 0.92 0.90 0.99 1.13 1.12 0.99 0.87 0.90 0.87 0.77 0.71 0.82 1.02 1.19 1.47 1.59 1.53 1.43 1.24 1.17 1.19 1.18 1.21 1.14 1.05 1.07 1.05 1.10 1.07 1.01 1.05 1.14 1.22 1.28
0.93 0.98 0.96 1.04 0.88 0.84 0.86 0.87 0.96 0.95 0.93 0.98 1.05 0.94 0.82 0.77 0.82 0.90 1.11 1.33 1.46 1.39 1.26 1.12 1.15 1.17 1.10 0.98 0.95 0.97 0.97 0.95 0.98 1.03 1.08 1.19 1.26 1.19
0.82 0.83 0.79 0.88 0.74 0.66 0.62 0.68 0.75 0.80 0.89 1.01 1.01 0.98 0.96 0.91 0.89 0.91 0.96 1.06 1.16 1.23 1.23 1.19 1.13 1.11 1.09 0.97 0.92 0.93 0.93 0.92 0.88 0.91 0.94 1.17 1.34 1.38
0.54 0.63 0.65 0.63 0.59 0.52 0.57 0.62 0.63 0.66 0.77 0.86 0.88 0.85 0.85 0.90 0.90 0.90 0.92 0.96 0.96 0.90 0.88 0.95 1.05 1.10 1.13 1.06 0.94 0.91 0.91 0.88 0.83 0.83 0.88 0.94 1.03 1.20
0.45 0.48 0.48 0.48 0.49 0.51 0.54 0.58 0.64 0.68 0.72 0.75 0.75 0.77 0.79 0.86 0.92 0.90 0.89 0.94 0.99 0.94 0.89 0.91 0.97 1.10 1.14 1.08 1.03 0.95 0.93 0.90 0.84 0.81 0.81 0.87 0.97 1.07
0.55 0.50 0.47 0.48 0.50 0.57 0.60 0.59 0.63 0.67 0.67 0.66 0.68 0.71 0.70 0.76 0.81 0.82 0.83 0.85 0.86 0.81 0.83 0.90 0.97 1.03 1.04 1.05 1.07 1.01 1.03 1.04 1.01 0.98 0.95 0.90 0.90 0.98
0.54 0.61 0.64 0.69 0.72 0.71 0.69 0.61 0.56 0.57 0.63 0.69 0.69 0.69 0.70 0.69 0.73 0.76 0.78 0.82 0.81 0.74 0.68 0.71 0.83 0.94 0.95 0.88 0.84 0.86 0.91 0.94 1.02 1.09 1.04 0.98 0.93 0.95
0.50 0.67 0.69 0.67 0.64 0.63 0.60 0.53 0.48 0.45 0.47 0.57 0.67 0.74 0.76 0.76 0.79 0.82 0.80 0.76 0.74 0.74 0.69 0.65 0.69 0.81 0.88 0.77 0.69 0.67 0.71 0.78 0.87 0.92 0.95 0.90 0.85 0.88
0.47 0.57 0.60 0.59 0.51 0.46 0.40 0.36 0.35 0.34 0.34 0.39 0.45 0.55 0.71 0.82 0.90 0.91 0.91 0.92 0.89 0.85 0.80 0.72 0.65 0.65 0.72 0.74 0.66 0.58 0.59 0.66 0.75 0.77 0.78 0.81 0.81 0.88
0.28 0.29 0.31 0.33 0.33 0.29 0.27 0.27 0.28 0.29 0.30 0.32 0.35 0.40 0.50 0.65 0.83 0.93 0.94 0.97 0.96 0.95 0.92 0.83 0.78 0.83 0.78 0.81 0.78 0.60 0.53 0.57 0.64 0.66 0.69 0.74 0.76 0.75
0.17 0.18 0.18 0.18 0.20 0.21 0.21 0.23 0.26 0.28 0.27 0.30 0.36 0.42 0.52 0.58 0.63 0.74 0.86 0.88 0.81 0.77 0.78 0.80 0.84 0.87 0.85 0.89 0.86 0.72 0.60 0.55 0.61 0.69 0.69 0.69 0.67 0.65
0.17 0.17 0.17 0.17 0.20 0.26 0.27 0.26 0.26 0.28 0.28 0.30 0.34 0.41 0.50 0.60 0.65 0.67 0.70 0.73 0.76 0.78 0.79 0.79 0.81 0.82 0.84 0.88 0.94 0.90 0.77 0.69 0.68 0.70 0.70 0.79 0.74 0.63